Tracking 25710 objects as of 6-Jul-2022
HD Live streaming from Space Station
objects crossing your sky now

STARLINK-2585

Track STARLINK-2585 now!
10-day predictions
STARLINK-2585 is classified as:


NORAD ID: 48382
Int'l Code: 2021-038AF
Perigee: 553.2 km
Apogee: 555.5 km
Inclination: 53.1 °
Period: 95.6 minutes
Semi major axis: 6925 km
RCS: Unknown
Launch date: May 4, 2021
Source: United States (US)
Launch site: AIR FORCE EASTERN TEST RANGE (AFETR)
aabbcc
Your satellite tracking list
Your tracking list is empty




NASA's NSSDC Master Catalog

Two Line Element Set (TLE):
1 48382U 21038AF  22186.66431570  .00001000  00000-0  86059-4 0  9993
2 48382  53.0545 260.7107 0001725  52.5335 307.5810 15.06399657 65332
Source of the keplerian elements: AFSPC